Location: Majestic Skies Ranch
(34.0000°N, 105.9300°W)
Time: 14:44:04
(UTC-06:00)

ISS - Visible Passes

Search period start: 25 May 2018 00:00
Search period end: 04 June 2018 00:00
Orbit: 402 x 407 km, 51.6° (Epoch: 26 May)

Date Brightness Start Highest point End Pass type
(mag) Time Alt. Az. Time Alt. Az. Time Alt. Az.
26 May -0.2 20:52:38 10° NW 20:53:17 10° NNW 20:53:55 10° NNW visible
01 Jun -0.3 23:43:29 10° NNW 23:43:46 12° NNW 23:43:46 12° NNW visible
02 Jun -1.2 22:51:40 10° NNW 22:53:15 17° NNE 22:53:15 17° NNE visible
03 Jun -1.1 22:00:19 10° N 22:01:31 11° NNE 22:02:41 10° NE visible
03 Jun -0.5 23:35:07 10° NW 23:35:23 12° NW 23:35:23 12° NW visible
